{"data":{"norad_id":48593,"epoch":"2026-05-24T17:25:50.255040Z","epoch_age_seconds":94787,"freshness":"FRESH","line1":"1 48593U 21041AS  26144.72627610 -.00001143  00000+0 -25068-4 0  9990","line2":"2 48593  53.1603 146.2520 0000947 132.3399 227.7683 15.31704956276730","mean_motion":15.31704956,"eccentricity":9.47e-5,"inclination_deg":53.1603,"raan_deg":146.252,"arg_perigee_deg":132.3399,"mean_anomaly_deg":227.7683,"bstar":-2.5068e-5,"rev_number":27673,"period_min":94.01288377107,"perigee_km":470.07663443498,"apogee_km":471.37380893976,"semimajor_km":6848.8622216874,"source":"CELESTRAK","updated_at":"2026-05-25T13:38:16.750897Z"}}